sat.trackr.live / text

‹ back to catalog

STARLINK-3240

NORAD 49728 · 2021-115E

PAYLOAD ACTIVE UNKNOWN

§ Identity

Operator
Country
US
Launch date
2021-12-02
Launch site
AFETR
Launch vehicle
Mass (kg)
RCS (m²)

Purposes: comms

External: N2YO · Heavens-Above · Gunter

§ Orbital elements

Epoch: 2026-05-25T01:47:40.159104Z

Period
95.44 min
Inclination
53.2129°
Eccentricity
0.0001048
Mean motion
15.08835924 rev/d
Perigee alt
539.0 km
Apogee alt
540.5 km
Semi-major
6,917.9 km
B*
1.9674e-5
RAAN
176.2137°
Arg perigee
74.0719°
Mean anomaly
286.0388°
Rev number
24,692

§ Raw data

STARLINK-32401 49728U 21115E   26145.07477036  .00000025  00000+0  19674-4 0  99992 49728  53.2129 176.2137 0001048  74.0719 286.0388 15.08835924246925

JSON: /api/v1/satellites/49728 · /tle

For live sub-satellite position, see the globe view (requires WebGL).

§ Visibility from observer

Set your observer location to see the next 7 days of passes ≥ 10°. The values pass through the URL so the page stays shareable.

No JS? Fill the form by hand. The geolocation button needs JavaScript.